Waarnemingen

Advertentie
Mijn weer
Tiree, Groot Brittannië (3100): temperatuur & dauwpunt: 08.08.2018 14:00:00 - 14.08.2018 14:00:00 (BST)Tiree, Groot Brittannië (3100): temperatuur -20cm & temperatuur -100cm: 08.08.2018 14:00:00 - 14.08.2018 14:00:00 (BST)Tiree, Groot Brittannië (3100): windsnelheid & windstoten: 08.08.2018 14:00:00 - 14.08.2018 14:00:00 (BST)Tiree, Groot Brittannië (3100): windrichting: 08.08.2018 14:00:00 - 14.08.2018 14:00:00 (BST)Tiree, Groot Brittannië (3100): luchtdruk: 08.08.2018 14:00:00 - 14.08.2018 14:00:00 (BST)Tiree, Groot Brittannië (3100): zicht: 08.08.2018 14:00:00 - 14.08.2018 14:00:00 (BST)Tiree, Groot Brittannië (3100): Zonneschijnduur: 08.08.2018 14:00:00 - 14.08.2018 14:00:00 (BST)Tiree, Groot Brittannië (3100): neerslag: 08.08.2018 14:00:00 - 14.08.2018 14:00:00 (BST)
Datum & Tijd tt [°C] td [°C] tt -20cm [°C] tt -100cm [°C] ff [km/u] ff [kn] fx [km/u] fx [kn] dd ppp [hPa] vv [km] sd [min] rr [mm]
14.08.2018 14:00:00 16,5 15,1 - - 34 18 46 25 WZW 1008,7 9 12 0,0
14.08.2018 13:00:00 16,0 15,7 - - 29 16 46 25 WZW 1008,4 9 0 0,0
14.08.2018 12:00:00 15,4 15,3 - - 26 14 - - ZW 1008,3 3,5 0 0,2
14.08.2018 11:00:00 15,4 15,3 - - 24 13 - - ZZW 1008,3 2,6 0 0,2
14.08.2018 10:00:00 14,6 14,5 16,4 14,4 21 11 - - ZZW 1008,6 9 0 2,2
14.08.2018 09:00:00 14,1 13,9 - - 21 11 - - ZW 1008,7 5 0 3,2
14.08.2018 08:00:00 14,8 14,5 - - 18 10 - - ZZW 1008,7 8 0 0,0
14.08.2018 07:00:00 14,4 14,1 - - 18 10 - - ZZW 1008,7 9 0 0,2
14.08.2018 06:00:00 14,1 13,5 - - 15 8 - - ZW 1008,9 2,2 0 0,0
14.08.2018 05:00:00 13,9 13,5 - - 16 9 - - ZW 1009,1 18 0 0,0
14.08.2018 04:00:00 14,1 13,9 - - 18 10 - - ZW 1009,5 17 0 0,2
14.08.2018 03:00:00 14,3 14,0 - - 18 10 - - ZZW 1009,4 2,0 0 0,0
14.08.2018 02:00:00 13,8 13,4 - - 15 8 - - Z 1009,7 7 0 0,0
14.08.2018 01:00:00 13,5 12,7 - - 13 7 - - ZZW 1009,8 30 - 0,0
14.08.2018 00:00:00 13,4 12,7 - - 13 7 - - ZW 1009,9 10 0 0,0
13.08.2018 23:00:00 13,2 12,8 - - 15 8 - - ZW 1010,0 45 0 0,2
13.08.2018 22:00:00 13,7 13,3 - - 11 6 - - ZW 1009,7 11 0 0,0
13.08.2018 21:00:00 14,0 13,7 - - 13 7 - - WZW 1009,4 11 0 0,2
13.08.2018 20:00:00 14,1 13,5 - - 16 9 - - ZZW 1009,3 2,9 0 0,0
13.08.2018 19:00:00 14,7 12,7 - - 13 7 - - ZZW 1009,2 5 0 0,0
13.08.2018 18:00:00 15,3 12,8 - - 16 9 - - ZZW 1009,1 10 18 0,0
13.08.2018 17:00:00 16,1 13,0 - - 16 9 - - ZW 1009,2 10 18 0,0
13.08.2018 16:00:00 15,5 12,2 - - 16 9 - - WZW 1009,2 10 18 0,0
13.08.2018 15:00:00 16,5 13,0 - - 16 9 - - ZW 1009,1 10 6 0,0
13.08.2018 14:00:00 15,8 12,5 - - 15 8 - - WZW 1009,0 10 6 0,0
13.08.2018 13:00:00 15,5 13,4 - - 15 8 - - WZW 1008,8 10 0 0,0
13.08.2018 12:00:00 15,0 13,5 - - 15 8 - - WZW 1008,5 10 0 0,0
13.08.2018 11:00:00 14,4 12,9 - - 13 7 - - WZW 1008,4 10 0 0,0
13.08.2018 10:00:00 15,2 13,3 16,2 14,4 5 3 - - W 1007,9 50 0 0,0
13.08.2018 09:00:00 13,5 13,1 - - 4 2 - - - 1007,8 9 0 0,0
13.08.2018 08:00:00 13,2 12,9 - - 11 6 - - W 1007,6 7 0 0,0
13.08.2018 07:00:00 12,9 12,8 - - 13 7 - - WNW 1007,1 20 0 0,2
13.08.2018 06:00:00 13,6 13,4 - - 13 7 - - ZZO 1006,5 3,4 0 0,2
13.08.2018 05:00:00 13,8 13,6 - - 11 6 - - ZZO 1006,5 3,7 0 0,2
13.08.2018 04:00:00 14,0 13,8 - - 8 4 - - ZZO 1006,7 4,2 0 0,0
13.08.2018 03:00:00 14,1 13,8 - - 8 4 - - ZZO 1006,8 14 0 0,0
13.08.2018 02:00:00 14,2 14,0 - - 4 2 - - Z 1006,8 26 0 0,2
13.08.2018 01:00:00 14,4 14,1 - - 5 3 - - Z 1006,9 2,7 - 0,0
13.08.2018 00:00:00 14,5 14,1 - - 4 2 - - W 1006,9 10 0 0,0
12.08.2018 23:00:00 14,5 14,0 - - 2 1 - - NNW 1006,9 27 0 0,0
12.08.2018 22:00:00 14,6 14,1 - - 4 2 - - NNW 1006,9 23 0 0,0
12.08.2018 21:00:00 14,7 14,1 - - 8 4 - - N 1006,8 15 0 0,0
12.08.2018 20:00:00 15,6 14,3 - - 4 2 - - WNW 1006,6 20 0 0,0
12.08.2018 19:00:00 16,0 13,6 - - 5 3 - - ZO 1006,5 45 0 0,0
12.08.2018 18:00:00 16,8 14,1 - - 9 5 - - OZO 1006,4 45 0 0,0
12.08.2018 17:00:00 16,5 15,0 - - 9 5 - - NO 1006,4 50 0 0,0
12.08.2018 16:00:00 15,4 14,5 - - 9 5 - - ZO 1006,7 10 0 0,0
12.08.2018 15:00:00 15,6 14,6 - - 16 9 - - ZO 1006,8 10 0 0,0
12.08.2018 14:00:00 15,5 15,0 - - 13 7 - - O 1006,6 9 0 0,0
12.08.2018 13:00:00 14,6 14,4 - - 13 7 - - O 1006,7 4,0 0 0,2
12.08.2018 12:00:00 14,6 14,4 - - 16 9 - - O 1006,5 5 0 0,0
12.08.2018 11:00:00 14,2 14,0 - - 16 9 - - O 1006,5 5 0 0,2
12.08.2018 10:00:00 14,2 14,0 16,2 14,5 15 8 - - O 1006,3 5 0 0,2
12.08.2018 09:00:00 13,9 13,6 - - 16 9 - - O 1006,3 2,2 0 0,2
12.08.2018 08:00:00 13,6 13,1 - - 24 13 - - OZO 1006,3 7 0 0,2
12.08.2018 07:00:00 13,9 12,5 - - 24 13 - - OZO 1006,2 3,6 0 0,0
12.08.2018 06:00:00 14,7 12,1 - - 18 10 - - OZO 1006,0 27 0 0,0
12.08.2018 05:00:00 14,6 12,1 - - 13 7 - - O 1006,2 35 0 0,0
12.08.2018 04:00:00 14,5 12,2 - - 13 7 - - O 1006,7 40 0 0,0
12.08.2018 03:00:00 14,7 11,6 - - 24 13 - - O 1007,3 35 0 0,0
12.08.2018 02:00:00 14,2 11,8 - - 34 18 - - O 1008,0 40 0 0,0
12.08.2018 01:00:00 14,9 11,5 - - 31 17 48 26 OZO 1008,6 30 - 0,0
12.08.2018 00:00:00 14,5 11,7 - - 35 19 48 26 OZO 1009,4 11 0 0,0
11.08.2018 23:00:00 15,2 11,8 - - 29 16 - - OZO 1010,1 23 0 0,0
11.08.2018 22:00:00 14,8 12,6 - - 18 10 - - OZO 1010,6 25 0 0,0
11.08.2018 21:00:00 14,7 12,8 - - 22 12 - - OZO 1011,1 16 0 0,0
11.08.2018 20:00:00 14,9 12,6 - - 31 17 - - ZO 1011,7 15 6 0,0
11.08.2018 19:00:00 16,4 11,2 - - 29 16 - - OZO 1012,0 30 18 0,0
11.08.2018 18:00:00 16,6 11,6 - - 28 15 - - OZO 1012,5 10 42 0,0
11.08.2018 17:00:00 16,5 11,4 - - 26 14 - - OZO 1013,2 10 60 0,0
11.08.2018 16:00:00 16,6 10,9 - - 28 15 - - OZO 1014,2 10 48 0,0
11.08.2018 15:00:00 16,1 10,0 - - 26 14 - - OZO 1015,1 10 60 0,0
11.08.2018 14:00:00 15,4 11,2 - - 26 14 - - OZO 1015,8 10 48 0,0
11.08.2018 13:00:00 14,9 10,1 - - 26 14 - - ZO 1016,4 10 60 0,0
11.08.2018 12:00:00 14,6 10,8 - - 24 13 - - ZZO 1016,9 26 12 0,0
11.08.2018 11:00:00 14,6 10,4 - - 22 12 - - ZZO 1017,2 10 30 0,0
11.08.2018 10:00:00 14,5 10,4 16,4 14,5 18 10 - - ZZO 1017,4 10 24 0,0
11.08.2018 09:00:00 14,0 10,2 - - 13 7 - - Z 1018,0 35 6 0,0
11.08.2018 08:00:00 13,0 10,7 - - 9 5 - - Z 1018,2 35 24 0,0
11.08.2018 07:00:00 10,1 8,9 - - 8 4 - - ZZW 1018,2 29 0 0,0
11.08.2018 06:00:00 10,4 8,9 - - 8 4 - - ZZW 1018,2 35 0 0,0
11.08.2018 05:00:00 11,2 9,3 - - 8 4 - - Z 1018,3 45 0 0,0
11.08.2018 04:00:00 11,0 9,6 - - 4 2 - - Z 1018,3 50 0 0,0
11.08.2018 03:00:00 11,0 9,4 - - 5 3 - - W 1018,7 50 0 0,0
11.08.2018 02:00:00 10,4 9,3 - - 8 4 - - WNW 1018,8 50 0 0,0
11.08.2018 01:00:00 8,3 6,9 - - 13 7 - - WNW 1019,0 50 - 0,0
11.08.2018 00:00:00 9,5 8,1 - - 11 6 - - WNW 1019,0 50 0 0,0
10.08.2018 23:00:00 9,9 8,4 - - 11 6 - - WNW 1018,8 45 0 0,0
10.08.2018 22:00:00 10,9 8,6 - - 11 6 - - W 1018,5 40 0 0,0
10.08.2018 21:00:00 11,9 9,1 - - 9 5 - - W 1017,9 35 6 0,0
10.08.2018 20:00:00 12,7 9,4 - - 11 6 - - WNW 1017,5 35 30 0,0
10.08.2018 19:00:00 13,6 10,1 - - 15 8 - - WNW 1017,2 35 36 0,0
10.08.2018 18:00:00 14,9 9,2 - - 22 12 - - NW 1016,8 10 60 0,0
10.08.2018 17:00:00 15,3 9,6 - - 21 11 - - NW 1016,3 10 54 0,0
10.08.2018 16:00:00 14,4 9,1 - - 24 13 - - NW 1015,9 35 54 0,0
10.08.2018 15:00:00 14,0 9,1 - - 22 12 - - WNW 1015,6 10 48 0,0
10.08.2018 14:00:00 15,3 10,9 - - 18 10 - - WNW 1015,1 30 54 0,0
10.08.2018 13:00:00 14,8 10,5 - - 16 9 - - WNW 1014,5 35 48 0,0
10.08.2018 12:00:00 14,0 10,7 - - 13 7 - - NW 1013,8 28 48 0,0
10.08.2018 11:00:00 13,9 10,2 - - 13 7 - - NNW 1013,4 40 48 0,0
10.08.2018 10:00:00 13,1 9,9 16,5 14,5 15 8 - - NNW 1012,9 50 30 0,0
10.08.2018 09:00:00 13,1 10,2 - - 11 6 - - NNW 1012,4 10 60 0,0
10.08.2018 08:00:00 10,7 10,0 - - 8 4 - - NW 1011,9 40 18 0,2
10.08.2018 07:00:00 10,1 9,4 - - 11 6 - - NW 1011,5 30 0 0,0
10.08.2018 06:00:00 8,3 7,1 - - 11 6 - - WZW 1011,2 45 0 0,0
10.08.2018 05:00:00 9,9 9,3 - - 13 7 - - W 1011,1 20 0 0,0
10.08.2018 04:00:00 8,8 7,9 - - 11 6 - - W 1011,1 45 0 0,0
10.08.2018 03:00:00 10,0 9,3 - - 5 3 - - W 1011,2 40 0 0,0
10.08.2018 02:00:00 10,8 10,1 - - 9 5 - - NW 1011,3 45 0 0,8
10.08.2018 01:00:00 11,2 10,5 - - 13 7 - - NW 1011,1 8 - 0,0
10.08.2018 00:00:00 11,1 10,5 - - 13 7 - - WNW 1011,0 11 0 2,8
09.08.2018 23:00:00 11,6 10,9 - - 8 4 - - ZW 1010,8 25 0 1,2
09.08.2018 22:00:00 11,6 10,6 - - 4 2 - - ZW 1010,8 10 0 0,2
09.08.2018 21:00:00 12,1 10,4 - - 8 4 - - ZW 1010,9 24 0 0,0
09.08.2018 20:00:00 12,5 10,1 - - 8 4 - - WZW 1010,8 22 0 0,0
09.08.2018 19:00:00 14,5 10,4 - - 18 10 - - ZW 1010,8 24 42 0,0
09.08.2018 18:00:00 13,6 10,0 - - 18 10 - - ZW 1011,0 29 30 0,0
09.08.2018 17:00:00 15,4 10,5 - - 22 12 - - ZW 1010,9 10 48 0,0
09.08.2018 16:00:00 15,5 11,1 - - 24 13 - - ZW 1010,7 27 54 0,0
09.08.2018 15:00:00 14,7 10,0 - - 28 15 - - WZW 1010,5 10 54 0,0
09.08.2018 14:00:00 15,5 10,9 - - 29 16 - - ZW 1010,2 35 60 0,0
09.08.2018 13:00:00 14,1 9,7 - - 28 15 - - ZW 1009,9 30 54 0,0
09.08.2018 12:00:00 14,6 10,4 - - 28 15 - - WZW 1009,6 19 54 0,0
09.08.2018 11:00:00 14,5 10,3 - - 31 17 - - ZW 1009,2 10 54 0,0
09.08.2018 10:00:00 12,2 10,0 16,7 14,5 26 14 50 27 ZW 1009,0 10 18 3,4
09.08.2018 09:00:00 13,0 9,8 - - 28 15 - - ZW 1008,6 9 6 0,6
09.08.2018 08:00:00 10,6 9,2 - - 34 18 50 27 ZW 1008,3 4,2 0 3,0
09.08.2018 07:00:00 11,7 9,1 - - 24 13 - - ZW 1007,9 30 0 0,0
09.08.2018 06:00:00 11,6 9,1 - - 26 14 - - ZW 1007,4 35 0 0,0
09.08.2018 05:00:00 10,6 9,2 - - 22 12 55 30 WZW 1007,4 18 0 1,6
09.08.2018 04:00:00 11,2 9,7 - - 16 9 - - ZZW 1007,3 23 0 0,4
09.08.2018 03:00:00 11,7 8,9 - - 21 11 - - ZW 1007,3 27 0 0,0
09.08.2018 02:00:00 11,8 9,4 - - 22 12 - - ZW 1007,5 26 0 0,0
09.08.2018 01:00:00 11,3 8,8 - - 22 12 - - ZZW 1007,6 27 - 0,0
09.08.2018 00:00:00 11,8 8,6 - - 22 12 - - ZW 1007,9 25 0 0,0
08.08.2018 23:00:00 11,7 8,8 - - 24 13 - - ZW 1008,1 28 0 0,0
08.08.2018 22:00:00 11,1 8,8 - - 18 10 - - ZW 1008,1 30 0 0,2
08.08.2018 21:00:00 12,6 9,0 - - 21 11 - - ZW 1007,6 29 24 0,0
08.08.2018 20:00:00 13,1 8,5 - - 24 13 - - ZW 1007,2 30 36 0,0
08.08.2018 19:00:00 13,7 8,6 - - 28 15 - - WZW 1007,1 29 54 0,0
08.08.2018 18:00:00 14,2 8,8 - - 29 16 - - WZW 1006,8 30 60 0,0
08.08.2018 17:00:00 14,5 7,7 - - 29 16 - - WZW 1006,5 10 54 0,0
08.08.2018 16:00:00 15,1 9,1 - - 29 16 - - WZW 1006,1 10 48 0,0
08.08.2018 15:00:00 14,9 9,8 - - 22 12 - - WZW 1005,9 26 42 0,0
08.08.2018 14:00:00 14,3 8,4 - - 29 16 - - W 1005,7 40 42 0,0

tt = temperatuur
td = dauwpunt
tt -20cm = temperatuur -20cm
tt -100cm = temperatuur -100cm
ff = windsnelheid
fx = windstoten
dd = windrichting
ppp = luchtdruk
vv = zicht
sd = Zonneschijnduur
rr = neerslag

Weerstations in de omgeving